Погода в Новомихайловке

Россия / Оренбургская область     52°33′33″N   54°31′55″E
темп.,
°C
ветер,
м/с
пор.,
м/с
влажн.,
%
обл.,
%
осадки,
мм/ч
давл.,
гПа
погр.,
м
13 июня, вс
вс1323:00+16юв358589 3.3 101596
02:00+14вюв36925 1.1 1015113
05:00+14вюв410945 1.2 1016211
08:00+19ююв614745 0.2 1016618
11:00+22юв810551 0.2 1017872
14:00+24юв89413 0.0 10161408
17:00+25юв67430 0.0 10161403
20:00+23всв58593 0.0 1014225
14 июня, пн
пн1423:00+18в4117115 0.0 1015202
02:00+18юв51560100 0.0 1015315
05:00+17юв4126243 0.0 1017204
08:00+19юв6165176 0.0 1018494
11:00+25ююв811405 0.0 1018933
14:00+28ююв811275 0.0 10171564
17:00+28ююв7103433 0.0 10171658
20:00+24юв4950100 0.0 1016175
15 июня, вт
вт1523:00+22юв7174517 0.0 1017401
02:00+19ююв5154263 0.0 1017335
05:00+17юв354733 0.0 101771
08:00+21ююв4115220 0.0 1018381
11:00+26ююв57395 0.0 1017688
14:00+29ю55315 0.0 10161743
17:00+29ююв443020 0.0 10152742
20:00+27вюв34475 0.0 101568
16 июня, ср
ср1623:00+22вюв33485 0.0 101426
02:00+20вюв335315 0.0 101441
05:00+21вюв225045 0.0 101425
08:00+23юв244850 0.0 1014169
11:00+29ююв453367 0.0 1014727
14:00+30ююв6830100 0.0 10131801
17:00+31ю5831100 0.0 10122137
20:00+28юв464656 0.0 1011119
17 июня, чт
чт1723:00+23вюв6125272 0.0 1010198
02:00+21юв51358100 0.1 1009227
05:00+18ююв3465100 0.5 101061
08:00+22зюз36575 0.2 1009212
11:00+27з455342 0.2 1009806
14:00+29з674367 0.0 10091688
17:00+29зсз684679 0.0 10092079
20:00+24ссз5969100 0.4 1010426